Regional Weather Roundup
Issued by NWS

Home | Current Version | Previous Version | Graphics & Text | Print | Product List | Glossary On
Versions: 1 2 3 4 5 6 7 8 9 10 11 12 13 14 15 16 17 18 19 20 21 22 23 24 25 26 27 28 29 30 31 32 33 34 35 36 37 38 39 40 41 42 43 44 45 46 47 48 49 50
182
ASUS45 KBOU 140810
RWRCO

WEATHER ROUNDUP FOR COLORADO
NATIONAL WEATHER SERVICE DENVER/BOULDER CO
100 AM MST THU DEC 14 2017

NOTE: "FAIR" INDICATES FEW OR NO CLOUDS BELOW 12000 FEET WITH NO
SIGNIFICANT WEATHER AND/OR OBSTRUCTIONS TO VISIBILITY.

COZ001>005-013-030-031-140900-
...NORTHWEST COLORADO...

CITY           SKY/WX    TMP DP  RH WIND       PRES   REMARKS
CRAIG          LGT SNOW  30  27  88 W3        30.14R FOG
HAYDEN         LGT SNOW  28  27  96 W6        30.13F FOG     WCI  22
MEEKER         LGT SNOW  30  29  96 CALM      30.12S FOG
RABBIT EARS PA LGT SNOW  19  18  93 NW5       30.07F VSB 1   WCI  13
STEAMBOAT SPGS CLOUDY    29  29 100 CALM      30.11F VSB 3/4
WALDEN         CLOUDY    23  19  86 N6        30.12F WCI  16
$$

COZ006>008-011-140900-
...WEST CENTRAL VALLEYS...

CITY           SKY/WX    TMP DP  RH WIND       PRES   REMARKS
GRAND JUNCTION CLOUDY    36  35  96 SW5       30.08F
MONTROSE       CLOUDY    35  17  47 N8        30.07S WCI  29
EAGLE          LGT SNOW  27  24  89 CALM      30.12S FOG
RIFLE          FAIR      35  28  75 SW6       30.10S WCI  30
DELTA          CLOUDY    39  13  34 N6        30.04F
NUCLA          CLOUDY    37  21  52 W5        30.06F
$$

COZ017>023-064>068-140900-
...SOUTHWEST COLORADO...

CITY           SKY/WX    TMP DP  RH WIND       PRES   REMARKS
DURANGO        MOCLDY    32   8  36 CALM      29.99S
CORTEZ         FAIR      39  33  79 CALM      30.02F
PAGOSA SPRINGS CLOUDY    34   4  28 NW5       30.00S WCI  30
TELLURIDE      CLOUDY    31   8  38 W8G18     30.02F WCI  24
WOLF CREEK PAS CLOUDY    23  10  58 N3        30.11F
$$

COZ009-010-012-014-032>034-037-058>063-140900-
...CENTRAL COLORADO...

CITY           SKY/WX    TMP DP  RH WIND       PRES   REMARKS
ASPEN          LGT SNOW  29  23  78 CALM      30.06S
BUENA VISTA    LGT SNOW  28  24  83 NE6       30.07S WCI  22
COPPER MTN     NOT AVBL
BERTHOUD PASS  LGT SNOW  10   0  61 NE3       30.05F
COTTONWOOD PAS LGT SNOW  28  27  93 CALM      30.06F
GUNNISON       FAIR      29  15  56 SW5       30.00F WCI  24
KREMMLING      MIX PCPN  34  32  93 CALM      30.10F
LEADVILLE      LGT SNOW  20  18  92 SW10      30.03F VSB 3/4 WCI   9
MONARCH PASS   LGT SNOW  14  12  92 E20       30.14F WCI  -3
SALIDA         CLOUDY    35  15  44 SE15G21   30.13S WCI  25
SUNLIGHT       NOT AVBL
WILKERSON PASS LGT SNOW  14  12  92 E6        30.08F VSB 3/4 WCI   5
$$

COZ069>075-140900-
...SAN LUIS VALLEY/SANGRE DE CRISTO MOUNTAINS...

CITY           SKY/WX    TMP DP  RH WIND       PRES   REMARKS
ALAMOSA        CLOUDY    36   9  32 E12       30.00R
DEL NORTE      CLOUDY    35   6  30 S5        30.01S WCI  31
LA VETA PASS   CLOUDY    21  10  63 N22         N/A  WCI   5
SAGUACHE       CLOUDY    36  18  48 NW7       29.98F
$$

COZ035-036-038>040-140900-
...NORTHERN COLORADO FRONT RANGE...

CITY           SKY/WX    TMP DP  RH WIND       PRES   REMARKS
DENVER INTL AP LGT SNOW  30  27  88 N13       30.17S FOG     WCI  20
DMNS CITY PARK NOT AVBL
AURORA         NOT AVBL
FRONT RANGE AP LGT SNOW  32  31  94 N9        30.17S WCI  24
ERIE MUNI ARPT LGT SNOW  32  31  95 NE8       30.24S WCI  25
BOULDER MUN AP LGT SNOW  32  32 100 E3        30.18S
CENTENNIAL     LGT SNOW  29  28  96 NE3       30.16S FOG
BROOMFIELD     LGT RAIN  32  30  93 NE10      30.18S WCI  24
FORT COLLINS   MIX PCPN  31  30  96 N12       30.19S FOG     WCI  22
LONGMONT       LGT SNOW  34  31  89 NE8       30.21S WCI  27
$$

COZ041-046-047-076>085-087-088-140900-
...PIKES PEAK/PALMER DIVIDE AND SOUTHERN FOOTHILLS...

CITY           SKY/WX    TMP DP  RH WIND       PRES   REMARKS
COLO. SPRINGS  CLOUDY    34  20  56 NE14G25   30.13R WCI  25
A. F. ACADEMY  FLURRIES  29  23  79 N8        30.12S WCI  21
SCHRIEVER AFB  LGT RAIN  33  20  59 N17       30.13R WCI  22
CHEYENNE MTN   FLURRIES  31  17  56 N17       30.05F WCI  19
ELLICOTT         N/A    N/A N/A N/A NE17G23   30.11R
FALCON         LGT SNOW  28  23  83 N12G18    30.13R WCI  17
FORT CARSON    FAIR      37  17  44 N9G23     30.10F
LIMON          CLOUDY    31  23  72 N17       30.14R WCI  19
MONUMENT HILL  LGT SNOW  25  23  93 N7        30.14F WCI  17
CANON CITY     CLOUDY    41  14  33 SE8       30.10S
WALSENBURG     CLOUDY    34  14  44 W3        30.12S
TRINIDAD       CLOUDY    36  13  38 NE8       30.10R
$$

COZ042>045-048>051-090-091-140900-
...NORTHEAST COLORADO...

CITY           SKY/WX    TMP DP  RH WIND       PRES   REMARKS
GREELEY ARPT   FLURRIES  34  25  69 N13G21    30.19S WCI  25
AKRON          LGT SNOW  30  25  81 N9        30.15R WCI  22
BURLINGTON     LGT SNOW  34  27  75 N10       30.12S WCI  26
WRAY           FLURRIES  36  27  69 N14       30.14S
YUMA           FLURRIES  32  25  74 N10       30.14R WCI  24
STERLING       CLOUDY    36  28  75 N10       30.14R
HOLYOKE        FAIR      37  27  65 W12       30.13S
FORT MORGAN    LGT SNOW  32  27  82 NW3       30.18R
$$

COZ086-089-092>099-140900-
...SOUTHEAST COLORADO...

CITY           SKY/WX    TMP DP  RH WIND       PRES   REMARKS
PUEBLO         CLOUDY    41  14  33 SE5       30.11S
LA JUNTA       FAIR      38  15  39 NE9       30.12R
LAMAR          FAIR      38  15  39 NE5       30.10S
SPRINGFIELD      N/A     35  16  45 N8        30.09S WCI  29
$$




USA.gov is the U.S. government's official web portal to all federal, state and local government web resources and services.